CAPE
26 70 26 34 104 142 94 163 274 188 206 298 70 46 0 0 6 2 0 0 0 0 0 0 0 0 0 0 0 0 0 0 0 0 0 0 0 1 1 0 2 6 11 25
12 4 13 107 253 40 95 77 113 98 100 41 36 0 0 0 4 0 0 0 0 0 0 0 0 0 0 0 0 0 0 0 0 0 0 0 0 0 0 0 0 0 0 0
9 13 46 37 86 76 71 76 55 59 24 27 0 0 0 1 2 0 0 0 0 0 0 0 0 0 0 0 0 0 0 0 0 0 0 0 0 0 0 0 0 0 0 0
33 30 49 359 0 15 26 10 24 25 49 0 0 0 0 2 1 0 0 0 0 2 0 0 0 0 0 0 0 0 0 0 0 0 0 0 0 0 0 0 0 0 0 0
50 72 27 4 0 0 0 0 6 22 18 0 0 0 0 2 2 0 0 0 0 0 0 0 0 0 0 0 0 0 0 0 0 0 0 0 0 0 0 0 0 0 0 1
53 92 18 39 0 0 0 24 0 0 0 0 0 1 11 1 4 0 0 0 0 0 0 0 0 0 0 0 0 0 0 0 0 0 0 0 2 0 0 1 2 2 5 6
66 80 26 14 0 0 19 42 0 0 0 0 0 0 0 3 3 0 0 0 0 0 0 0 0 0 0 0 0 0 0 0 0 0 1 1 1 3 6 8 9 13 13 12
91 53 42 0 0 0 13 0 0 0 0 0 0 0 1 5 0 0 0 0 0 0 0 0 0 0 0 0 0 0 0 0 0 0 0 3 4 3 4 6 9 9 13 19
66 48 1 0 0 0 0 0 0 0 0 0 0 0 0 0 0 0 0 0 0 0 0 0 0 0 0 0 0 0 0 0 0 0 1 1 2 4 2 2 2 3 6 11
32 30 0 0 0 0 0 0 0 0 0 0 0 0 0 0 0 0 0 0 0 0 0 0 0 0 0 0 0 0 0 0 0 0 0 0 0 0 3 5 5 3 8 13
34 34 0 0 0 0 0 0 0 0 0 0 0 0 0 0 0 0 0 0 0 0 0 0 0 0 0 0 0 0 0 0 0 0 0 0 0 0 1 6 2 8 15 16
116 21 18 1 0 0 0 0 0 0 0 0 0 0 0 0 0 0 0 0 0 0 0 0 0 0 0 0 0 0 0 0 0 0 0 0 0 0 0 0 0 0 0 5
0 0 0 0 0 0 0 0 0 0 0 0 0 0 0 0 0 0 0 0 0 0 0 0 0 0 0 0 0 0 0 0 0 0 0 0 0 0 1 2 0 0 0 0
0 0 0 0 0 0 0 0 0 0 0 0 0 0 0 0 0 0 0 0 0 0 0 0 0 0 0 0 0 0 0 0 0 2 1 1 0 0 0 2 2 5 1 0
0 0 0 0 0 0 0 0 0 0 0 0 0 0 0 0 0 0 0 0 0 0 0 0 0 0 0 0 0 1 4 4 4 5 3 1 1 1 1 2 2 5 5 1
0 0 0 0 0 0 0 0 0 0 0 0 0 0 0 0 0 0 0 0 0 0 0 0 0 0 0 0 0 0 1 0 0 4 4 4 3 3 2 4 6 11 14 17
0 0 0 0 0 0 0 0 0 0 0 0 0 0 0 0 0 0 0 0 0 0 0 0 0 0 0 1 1 7 10 6 1 5 6 6 5 7 6 11 15 17 21 11
0 0 0 0 0 0 0 0 0 0 0 0 0 0 0 0 0 0 0 0 0 0 0 0 0 0 0 1 2 6 9 8 8 8 7 9 11 9 14 17 18 19 21 9
0 0 0 0 0 0 0 0 0 0 0 0 0 0 0 0 0 0 0 0 0 0 0 0 0 0 0 0 2 5 8 8 5 4 6 1 10 13 17 18 21 18 18 14
0 0 0 0 0 0 0 0 0 0 0 0 0 0 0 0 0 0 0 0 0 0 0 0 0 0 0 0 0 1 6 5 1 1 5 6 12 17 16 1 6 17 18 18
0 0 0 0 0 0 0 0 0 0 0 0 0 0 0 0 0 0 0 0 0 0 0 0 0 0 0 0 0 2 8 7 4 5 9 13 13 12 11 11 13 15 17 16
0 0 0 0 0 0 0 0 0 0 0 0 0 0 0 0 0 0 0 0 0 0 0 0 0 0 0 0 0 10 9 7 9 10 9 8 8 8 8 10 11 11 10 9
0 0 0 0 0 0 0 0 0 0 0 0 0 0 0 0 0 0 0 0 0 0 0 0 0 0 0 6 14 14 13 8 7 5 5 5 6 5 6 6 3 4 4 4
0 0 0 0 0 0 0 0 0 0 0 0 0 0 0 0 0 0 0 0 0 0 6 2 0 0 0 15 13 12 10 9 7 6 5 0 4 1 1 1 1 2 1 1
0 0 0 0 0 0 0 0 0 0 0 0 0 0 0 0 2 3 3 1 0 3 8 0 0 0 11 13 9 9 8 7 5 5 3 1 1 0 1 1 0 1 1 3
0 0 0 0 0 0 0 0 0 0 0 2 2 6 8 7 5 7 6 3 4 6 10 10 9 9 9 6 6 5 4 2 2 1 0 0 0 0 0 0 0 1 2 2
0 0 0 0 0 0 0 0 2 4 5 9 7 10 10 11 10 8 6 13 12 9 8 8 7 4 5 5 2 2 2 1 0 0 0 0 0 0 0 0 1 1 1 1
CIN
0 0 0 -11 0 0 0 0 0 -10 0 0 -2 0 0 0 0 0 0 0 0 0 0 0 0 0 0 0 0 0 0 0 0 0 0 0 0 0 0 0 0 -1 0 0
0 0 0 -2 -6 -54 -28 -42 -15 -10 -3 -1 -2 0 0 0 0 0 0 0 0 0 0 0 0 0 0 0 0 0 0 0 0 0 0 0 0 0 0 0 0 0 0 0
0 0 0 -6 -52 -77 -36 -29 -17 -5 -3 -6 -11 0 0 0 0 0 0 0 0 0 0 0 0 0 0 0 0 0 0 0 0 0 0 0 0 0 0 0 0 0 0 0
0 0 0 -15 -4 -11 -32 -21 -6 -9 -14 -34 0 0 0 0 0 0 0 0 0 0 0 0 0 0 0 0 0 0 0 0 0 0 0 0 0 0 0 0 0 0 0 0
0 0 -1 0 0 0 0 0 -29 -33 -40 0 0 0 0 0 0 0 0 0 0 0 0 0 0 0 0 0 0 0 0 0 0 0 0 0 0 0 0 0 0 0 0 0
0 0 0 -2 0 0 0 -8 0 0 0 0 0 0 0 0 0 0 0 0 0 0 0 0 0 0 0 0 0 0 0 0 0 0 0 0 0 0 0 0 0 0 0 0
-1 0 0 -2 0 0 -2 -12 0 0 0 0 0 0 0 0 0 0 0 0 0 0 0 0 0 0 0 0 0 0 0 0 0 0 0 0 0 0 0 0 0 0 0 0
0 0 0 0 0 0 -5 0 0 0 0 0 0 0 0 0 0 0 0 0 0 0 0 0 0 0 0 0 0 0 0 0 0 0 0 0 0 0 0 0 0 0 0 0
0 0 -2 0 -4 0 0 0 0 0 0 0 0 0 0 0 0 0 0 0 0 0 0 0 0 0 0 0 0 0 0 0 0 0 0 0 0 0 0 0 0 0 0 0
-2 -7 -4 0 0 0 0 0 0 0 0 0 0 0 0 0 0 0 0 0 0 0 0 0 0 0 0 0 0 0 0 0 0 0 0 0 0 0 0 0 0 0 0 0
-2 -14 0 0 0 0 0 0 0 0 0 0 0 0 0 0 0 0 0 0 0 0 0 0 0 0 0 0 0 0 0 0 0 0 0 0 0 0 0 0 0 0 0 0
0 -35 -4 -1 0 0 0 0 0 0 0 0 0 0 0 0 0 0 0 0 0 0 0 0 0 0 0 0 0 0 0 0 0 0 0 0 0 0 0 0 0 0 0 0
0 0 0 0 0 0 0 0 0 0 0 0 0 0 0 0 0 0 0 0 0 0 0 0 0 0 0 0 0 0 0 0 0 0 0 0 0 0 0 0 0 0 0 0
0 0 0 0 0 0 0 0 0 0 0 0 0 0 0 0 0 0 0 0 0 0 0 0 0 0 0 0 0 0 0 0 0 0 0 0 0 0 0 0 0 0 0 0
0 0 0 0 0 0 0 0 0 0 0 0 0 0 0 0 0 0 0 0 0 0 0 0 0 0 0 0 0 0 0 0 0 0 0 0 0 0 0 0 0 0 0 -1
0 0 0 0 0 0 0 0 0 0 0 0 0 0 0 0 0 0 0 0 0 0 0 0 0 0 0 0 0 0 0 0 0 0 0 0 0 0 0 0 0 0 0 0
0 0 0 0 0 0 0 0 0 0 0 0 0 0 0 0 0 0 0 0 0 0 0 0 0 0 0 0 0 0 0 0 0 0 0 0 0 0 0 0 0 0 0 0
0 0 0 0 0 0 0 0 0 0 0 0 0 0 0 0 0 0 0 0 0 0 0 0 0 0 0 0 0 0 0 0 0 0 0 0 0 0 0 0 0 0 0 -4
0 0 0 0 0 0 0 0 0 0 0 0 0 0 0 0 0 0 0 0 0 0 0 0 0 0 0 0 0 0 0 0 0 0 0 0 0 0 0 0 0 0 0 0
0 0 0 0 0 0 0 0 0 0 0 0 0 0 0 0 0 0 0 0 0 0 0 0 0 0 0 0 0 0 0 0 0 0 0 0 0 0 0 0 0 0 0 0
0 0 0 0 0 0 0 0 0 0 0 0 0 0 0 0 0 0 0 0 0 0 0 0 0 0 0 0 0 0 0 0 0 0 0 0 0 0 0 0 0 0 0 0
0 0 0 0 0 0 0 0 0 0 0 0 0 0 0 0 0 0 0 0 0 0 0 0 0 0 0 0 0 0 0 0 0 0 0 0 0 0 0 0 0 0 0 0
0 0 0 0 0 0 0 0 0 0 0 0 0 0 0 0 0 0 0 0 0 0 0 0 0 0 0 0 0 0 0 0 0 0 0 0 0 0 0 0 0 0 0 0
0 0 0 0 0 0 0 0 0 0 0 0 0 0 0 0 0 0 0 0 0 0 0 0 0 0 0 0 0 0 0 0 0 0 0 0 0 0 0 0 0 0 0 0
0 0 0 0 0 0 0 0 0 0 0 0 0 0 0 0 0 0 0 0 0 0 0 0 0 0 0 0 0 0 0 0 0 0 0 0 0 0 0 0 0 0 0 0
0 0 0 0 0 0 0 0 0 0 0 0 0 0 0 0 0 0 0 0 0 0 0 0 0 0 0 0 0 0 0 0 0 0 0 0 0 0 0 0 0 0 0 0
0 0 0 0 0 0 0 0 0 0 0 0 0 0 0 0 0 0 0 0 0 0 0 0 0 0 0 0 0 0 0 0 0 0 0 0 0 0 0 0 0 0 0 0
Wind_Speed
17 17 17 17 18 18 20 19 19 20 21 16 14 11 12 13 14 14 13 12 10 8 8 7 5 5 6 6 7 6 7 9 10 10 11 12 13 13 13 15 15 13 15 17
6 13 16 15 9 13 20 24 25 24 26 16 13 3 11 14 16 15 14 13 11 8 7 7 7 7 7 6 7 7 8 10 9 11 11 12 13 14 14 16 17 17 19 20
14 12 12 14 16 19 18 16 13 16 16 8 6 8 10 14 15 15 14 14 12 10 7 7 7 6 7 7 7 7 8 10 10 10 11 12 12 13 15 16 16 18 19 20
10 12 11 1 3 8 12 13 14 18 15 6 2 3 6 11 15 15 15 14 12 9 8 8 8 8 8 7 8 8 9 10 10 9 10 11 12 13 14 14 16 16 18 19
8 11 15 13 10 6 7 12 5 12 10 6 6 7 6 10 13 13 14 13 12 11 8 9 8 8 8 8 8 9 9 9 9 9 10 10 11 12 12 13 14 15 16 18
9 6 7 5 3 2 3 8 1 2 5 10 10 7 4 14 13 14 13 13 13 13 11 9 8 8 8 8 8 8 8 8 8 8 9 10 10 11 11 11 12 12 14 16
15 13 8 7 6 6 7 3 4 3 6 10 8 5 7 15 13 14 14 15 14 13 10 11 9 8 8 8 7 7 8 6 7 8 8 8 9 8 9 10 10 9 11 12
11 10 10 8 8 7 4 3 4 5 7 8 5 7 14 15 16 16 15 15 14 11 10 10 9 9 9 8 8 7 7 7 7 6 6 6 7 7 8 7 8 8 9 8
7 3 4 9 2 2 2 5 3 5 7 10 10 11 14 16 17 15 16 13 11 11 11 9 9 8 9 9 8 7 7 7 6 6 5 5 6 6 5 7 7 7 7 7
3 7 6 6 5 4 3 2 4 5 10 11 11 13 14 15 14 14 13 12 11 11 11 10 8 7 8 9 8 7 7 7 6 5 5 5 4 5 6 6 6 6 7 7
9 7 3 8 9 7 5 5 6 7 9 10 12 13 15 13 14 13 12 12 11 11 10 11 10 9 9 8 8 7 6 6 5 4 4 5 7 6 5 8 8 6 6 7
5 1 3 3 9 8 8 7 8 10 10 9 11 13 14 13 12 12 12 12 11 10 10 10 10 9 9 8 7 7 6 5 3 3 3 3 3 6 10 9 9 10 11 9
1 6 6 6 7 7 7 8 8 8 10 12 10 11 13 12 12 11 12 12 10 10 9 9 9 8 8 8 7 6 5 5 4 2 3 3 2 2 2 5 5 7 8 9
8 10 6 8 5 8 9 9 8 7 8 9 10 11 11 11 12 12 12 10 9 9 8 8 8 7 6 6 7 6 4 4 3 3 3 3 2 2 2 2 2 2 4 4
6 1 1 8 10 10 10 9 10 9 9 9 9 10 11 12 12 11 10 9 9 8 8 8 8 8 5 4 6 7 6 5 4 4 3 3 2 1 0 1 3 3 3 3
6 6 8 10 11 10 10 9 9 9 9 10 10 10 10 9 10 10 10 10 10 8 8 6 7 8 8 8 7 6 5 6 4 4 4 3 2 2 1 2 3 3 4 4
10 8 9 10 11 11 9 7 7 9 9 9 9 10 10 10 10 11 10 9 5 6 7 8 8 7 7 7 7 5 4 6 5 4 3 3 2 3 3 3 4 4 5 4
2 3 7 10 11 10 8 8 8 9 8 9 9 8 6 8 9 9 8 8 7 6 6 6 8 7 6 7 6 4 4 4 5 4 3 3 3 3 4 4 5 5 6 3
6 9 8 10 9 9 9 8 7 8 7 8 9 9 7 6 6 8 9 8 7 7 6 7 10 8 7 6 6 4 4 4 3 3 3 1 3 4 4 4 5 6 5 5
9 8 10 10 9 8 7 7 8 8 7 8 7 7 7 6 6 8 7 7 4 3 10 10 9 7 7 7 5 4 4 4 2 2 2 3 3 3 4 3 4 5 5 5
9 8 7 7 5 4 4 6 6 7 7 7 8 7 7 7 6 8 7 6 7 6 8 11 7 6 6 7 6 4 4 3 2 2 2 2 3 3 3 3 4 5 5 6
5 5 5 6 6 6 4 4 5 7 7 7 5 6 8 8 7 6 2 1 7 9 7 7 6 8 6 8 4 4 4 4 2 1 1 1 2 2 3 4 5 5 5 6
5 5 6 5 5 7 6 5 5 6 6 6 7 7 6 5 6 6 5 6 7 8 6 6 8 9 9 6 4 3 3 2 1 2 2 2 3 3 4 4 5 5 5 5
6 5 5 5 7 7 7 4 5 5 5 5 5 5 6 6 5 3 5 9 10 9 6 8 9 10 8 4 3 3 3 4 4 4 4 3 3 2 3 4 4 5 5 5
6 6 6 6 6 4 6 6 7 6 7 7 6 6 4 3 1 6 6 7 12 9 8 9 10 9 4 4 5 5 5 5 4 3 3 3 3 3 3 4 4 5 5 5
5 5 5 4 4 4 5 4 4 5 5 6 5 5 5 5 7 7 7 9 9 10 8 7 6 6 6 6 6 6 5 5 4 4 3 3 3 3 3 4 4 4 5 5
6 5 5 5 4 4 3 4 4 5 4 5 6 5 6 6 7 9 10 9 8 8 8 7 7 7 6 6 6 5 5 5 5 4 3 3 3 3 3 4 4 4 5 5
Wind_Direction
275 283 277 275 277 280 274 263 261 279 277 281 274 269 214 179 173 173 174 178 177 166 150 141 126 104 81 78 85 72 62 40 31 44 30 38 37 37 38 40 45 40 39 32
268 267 266 267 239 251 262 269 267 269 275 293 278 241 176 177 174 181 178 180 172 164 150 132 117 103 97 80 66 61 55 59 38 35 36 33 37 42 38 42 37 42 41 41
278 270 270 266 236 240 256 246 255 262 274 311 202 209 190 175 182 182 176 174 168 162 150 131 118 117 102 95 88 73 62 58 51 39 37 37 36 39 43 41 41 39 41 43
275 287 252 249 260 261 256 265 255 254 270 278 314 111 166 177 179 177 174 168 159 152 147 142 131 119 115 103 92 81 69 59 53 50 45 44 40 42 42 42 43 42 38 40
245 244 264 284 242 222 223 281 258 265 266 132 137 140 147 173 174 170 168 161 155 151 155 154 142 134 123 113 102 88 73 69 55 49 50 47 50 44 42 50 45 44 45 38
237 257 268 27 129 180 211 255 142 245 160 175 170 218 138 166 156 158 158 155 154 151 153 151 146 144 130 120 108 91 84 79 71 62 56 50 44 43 48 47 52 52 46 43
236 251 263 255 161 143 238 38 130 147 155 173 196 30 121 142 151 153 155 154 153 155 157 153 153 148 139 124 117 119 115 96 89 77 62 59 55 51 54 48 48 48 59 54
229 248 260 136 134 223 63 102 124 139 152 174 120 132 141 147 146 156 154 151 161 159 152 152 157 159 148 139 134 127 116 112 100 80 74 68 51 65 47 50 55 52 46 56
232 240 88 188 350 138 179 150 161 150 154 159 156 148 150 155 159 159 158 160 161 159 155 157 165 167 156 143 146 141 131 119 110 99 97 70 69 51 47 50 42 43 42 40
263 220 236 204 201 190 196 146 136 137 156 161 159 153 157 161 160 162 163 162 164 161 168 164 166 172 152 155 155 152 141 135 128 105 91 79 81 59 46 33 41 41 35 39
241 245 209 218 214 193 164 137 133 139 154 163 156 162 161 163 163 166 164 162 169 174 174 171 168 167 160 164 162 158 148 139 132 122 118 94 63 32 66 55 30 28 34 36
243 214 264 87 181 173 168 167 155 151 155 162 164 162 166 164 167 167 165 167 175 177 177 168 173 169 167 171 172 163 160 162 130 130 112 101 116 110 70 59 59 53 47 29
148 113 76 103 132 163 162 152 153 162 165 157 158 162 165 162 169 164 164 172 178 176 173 172 175 175 174 173 176 181 169 151 135 153 122 103 96 83 107 120 86 56 44 38
128 128 116 176 170 155 144 134 140 134 145 153 155 154 156 160 156 170 171 170 168 165 167 170 172 171 168 172 176 156 132 112 131 112 104 99 79 68 32 18 15 36 99 13
155 246 354 135 141 135 128 134 137 145 145 148 153 154 159 163 170 170 159 154 157 167 168 174 176 160 170 153 143 156 157 150 147 136 136 123 144 146 3 326 347 343 331 196
143 135 143 152 147 141 139 149 152 148 155 151 154 157 163 162 157 152 153 164 172 180 175 159 169 170 178 173 167 158 157 143 169 161 158 184 197 239 264 300 302 314 319 344
142 154 159 159 161 157 157 153 153 155 152 155 151 152 153 154 153 159 161 163 147 142 156 162 164 158 164 173 183 168 174 164 189 196 203 210 236 259 281 287 300 312 320 40
270 153 173 166 158 151 145 144 145 155 160 151 141 140 139 164 167 160 152 142 131 133 149 140 149 151 167 170 196 176 182 175 191 212 219 231 253 267 289 299 300 304 318 346
124 130 136 147 155 153 151 151 150 140 133 138 143 160 164 163 148 147 147 149 154 163 165 151 153 158 162 171 184 187 180 184 195 214 254 300 250 264 286 298 308 319 332 323
114 119 133 138 142 154 150 150 144 141 144 143 137 146 160 155 146 146 155 168 171 101 141 153 159 163 153 160 193 167 169 168 196 227 246 273 277 293 305 324 321 324 327 327
128 129 123 127 116 83 113 140 139 149 150 150 166 168 160 141 144 148 159 185 160 144 147 154 167 158 166 156 183 160 162 165 181 226 257 291 299 295 323 332 330 328 328 326
125 119 127 133 139 124 114 122 124 129 143 144 122 129 132 139 145 165 36 337 135 155 154 165 171 165 154 164 178 179 190 200 224 269 297 314 342 343 344 335 329 334 330 329
128 130 136 144 142 129 119 108 119 142 148 149 149 153 162 152 165 171 176 165 143 158 157 158 143 152 148 187 177 179 174 176 135 83 75 55 35 4 348 352 335 336 333 336
114 114 109 108 123 130 127 109 111 105 111 122 120 135 141 139 139 123 91 135 133 154 142 131 141 143 170 142 146 127 118 100 95 88 90 53 36 17 7 355 339 336 334 325
103 109 118 131 133 111 116 120 113 112 117 105 109 122 119 108 140 131 126 117 136 135 117 113 120 134 126 110 103 101 91 76 72 82 65 55 35 12 355 357 337 341 327 325
123 108 100 68 95 117 123 150 127 134 133 128 122 123 114 101 110 118 115 124 126 122 119 123 111 104 100 96 94 91 94 103 87 69 64 49 27 6 358 348 334 330 332 330
100 113 117 106 96 107 117 124 139 139 141 140 126 122 120 118 114 117 121 123 115 110 107 104 95 87 96 96 94 92 90 82 52 65 52 32 7 6 357 339 338 332 325 322